Location: Saint-Palais-sur-Mer
(45.6429°N, 1.0859°W)
Time: 00:05:47
(UTC+01:00)

Vanguard 1 - Pass Details

Date: 09 February 2026
Orbit: 653 x 3818 km, 34.2° (Epoch: 12 March)

Event Time Altitude Azimuth Distance (km) Brightness Sun altitude
Rises 22:46:07 0° 273° (W) 7,244 15.1 -45.3°
Reaches altitude 10° 22:50:46 10° 269° (W) 6,492 14.6 -46.0°
Maximum altitude 23:11:57 52° 202° (SSW) 4,365 13.0 -49.0°
Enters shadow 23:11:57 52° 202° (SSW) 4,365 13.0 -49.0°
